DW9852 Weather Reports


Display with metric or nautical units.
time (UTC)temp
F
wind
direction
speed
MPH
gust
MPH
rain 1hr
in
rain 24hr
in
rain mn
in
humidity
%
barometer
mb
20260510010542 87 203 3.0 8.0 0.00 0.00 0.00 60 1010.4
20260510010048 87 118 0.0 2.0 0.00 0.00 0.00 57 1010.6
20260510005539 87 210 0.0 3.0 0.00 0.00 0.00 56 1010.4
20260510005039 88 217 0.0 3.0 0.00 0.00 0.00 55 1010.4
20260510004550 88 0 0.0 5.0 0.00 0.00 0.00 55 1010.4
20260510004039 89 0 0.0 5.0 0.00 0.00 0.00 55 1010.4
20260510003540 89 84 1.0 6.0 0.00 0.00 0.00 54 1010.2
20260510003048 89 0 1.0 6.0 0.00 0.00 0.00 54 1010.2
20260510002538 89 236 3.0 6.0 0.00 0.00 0.00 53 1010.0
20260510002041 90 255 2.0 6.0 0.00 0.00 0.00 53 1009.8
20260510001543 90 269 2.0 6.0 0.00 0.00 0.00 52 1009.9
20260510001039 91 0 0.0 6.0 0.00 0.00 0.00 52 1009.9
20260510000541 91 0 3.0 6.0 0.00 0.00 0.00 52 1009.7
20260510000049 91 247 0.0 8.0 0.00 0.00 0.00 52 1009.8
20260509235539 91 210 1.0 8.0 0.00 0.00 0.00 52 1009.7
20260509235038 91 231 1.0 8.0 0.00 0.00 0.00 51 1009.7
20260509234550 91 229 0.0 4.0 0.00 0.00 0.00 52 1009.8
20260509234043 91 201 2.0 5.0 0.00 0.00 0.00 52 1010.1
20260509233541 92 0 1.0 5.0 0.00 0.00 0.00 51 1010.1
20260509233051 92 217 0.0 5.0 0.00 0.00 0.00 52 1010.1
20260509232542 92 209 1.0 6.0 0.00 0.00 0.00 53 1010.1
20260509232039 92 0 2.0 6.0 0.00 0.00 0.00 52 1010.1
20260509231549 92 226 2.0 5.0 0.00 0.00 0.00 53 1010.1
20260509231039 92 203 2.0 5.0 0.00 0.00 0.00 52 1010.1
20260509230539 92 0 0.0 1.0 0.00 0.00 0.00 52 1010.1
20260509230044 92 0 0.0 2.0 0.00 0.00 0.00 52 1010.0
20260509225539 92 0 0.0 4.0 0.00 0.00 0.00 50 1009.9
20260509225045 92 265 1.0 6.0 0.00 0.00 0.00 51 1009.9
20260509224547 92 191 2.0 6.0 0.00 0.00 0.00 53 1009.9
20260509224045 92 239 2.0 6.0 0.00 0.00 0.00 52 1009.9
20260509223541 91 208 1.0 6.0 0.00 0.00 0.00 52 1009.8
20260509223051 91 217 0.0 5.0 0.00 0.00 0.00 54 1009.9
20260509222541 91 16 2.0 5.0 0.00 0.00 0.00 52 1009.9
20260509222040 91 0 0.0 5.0 0.00 0.00 0.00 53 1009.9
20260509221547 91 0 1.0 5.0 0.00 0.00 0.00 53 1009.9
20260509221039 91 98 3.0 5.0 0.00 0.00 0.00 53 1009.9
20260509220539 91 0 1.0 8.0 0.00 0.00 0.00 54 1009.9
20260509220049 91 106 2.0 8.0 0.00 0.00 0.00 55 1010.1
20260509215539 92 214 1.0 6.0 0.00 0.00 0.00 53 1009.9
20260509215039 92 0 1.0 5.0 0.00 0.00 0.00 52 1009.9
20260509214549 92 0 1.0 5.0 0.00 0.00 0.00 53 1009.8
20260509214039 92 0 0.0 5.0 0.00 0.00 0.00 52 1010.0
20260509213539 92 266 0.0 5.0 0.00 0.00 0.00 52 1010.0
20260509213104 91 245 1.0 5.0 0.00 0.00 0.00 53 1010.0
20260509212540 92 0 2.0 5.0 0.00 0.00 0.00 51 1010.1
20260509212040 92 252 0.0 2.0 0.00 0.00 0.00 54 1010.2
20260509211553 91 249 0.0 9.0 0.00 0.00 0.00 53 1010.2
20260509211042 91 0 1.0 9.0 0.00 0.00 0.00 53 1010.1
20260509210538 90 246 0.0 7.0 0.00 0.00 0.00 55 1010.4
20260509210100 90 195 3.0 11.0 0.00 0.00 0.00 56 1010.3
20260509205539 89 0 2.0 11.0 0.00 0.00 0.00 56 1010.4
20260509205039 90 250 2.0 9.0 0.00 0.00 0.00 55 1010.7
20260509204549 90 0 0.0 9.0 0.00 0.00 0.00 56 1010.6
20260509204038 90 0 0.0 9.0 0.00 0.00 0.00 55 1010.8
20260509203539 91 53 0.0 2.0 0.00 0.00 0.00 55 1010.7
20260509203054 90 0 0.0 2.0 0.00 0.00 0.00 54 1011.0
20260509202539 90 0 0.0 2.0 0.00 0.00 0.00 56 1011.1
20260509202040 89 0 0.0 2.0 0.00 0.00 0.00 60 1011.1
20260509201552 89 0 0.0 1.0 0.00 0.00 0.00 59 1011.3
20260509201039 88 0 0.0 1.0 0.00 0.00 0.00 63 1011.3
20260509200539 88 0 0.0 9.0 0.00 0.00 0.00 62 1011.3
20260509200050 87 0 0.0 9.0 0.00 0.00 0.00 62 1011.4
20260509195539 88 271 2.0 9.0 0.00 0.00 0.00 62 1011.7
20260509195041 88 281 0.0 1.0 0.00 0.00 0.00 62 1011.8
20260509194549 88 0 0.0 4.0 0.00 0.00 0.00 62 1011.7
20260509194039 88 245 0.0 4.0 0.00 0.00 0.00 62 1011.9
20260509193543 87 0 0.0 4.0 0.00 0.00 0.00 64 1012.0
20260509193047 87 0 0.0 1.0 0.00 0.00 0.00 64 1012.1
20260509192542 88 0 0.0 7.0 0.00 0.00 0.00 63 1012.1
20260509192039 88 0 0.0 7.0 0.00 0.00 0.00 61 1012.1
20260509191548 88 252 4.0 7.0 0.00 0.00 0.00 58 1012.1
20260509191040 89 212 0.0 9.0 0.00 0.00 0.00 57 1012.2
20260509190539 88 3 1.0 12.0 0.00 0.00 0.00 63 1012.2
20260509190047 88 265 4.0 12.0 0.00 0.00 0.00 61 1012.3
20260509185539 88 240 4.0 12.0 0.00 0.00 0.00 60 1012.3
20260509185040 88 229 2.0 7.0 0.00 0.00 0.00 61 1012.3
20260509184553 87 0 0.0 11.0 0.00 0.00 0.00 61 1012.4
20260509184039 87 0 1.0 15.0 0.00 0.00 0.00 63 1012.4
20260509183539 87 233 1.0 15.0 0.00 0.00 0.00 64 1012.4
20260509183046 87 109 1.0 5.0 0.00 0.00 0.00 65 1012.3
20260509182539 87 0 1.0 5.0 0.00 0.00 0.00 64 1012.5
20260509182038 87 0 0.0 5.0 0.00 0.00 0.00 64 1012.4
20260509181555 86 261 0.0 8.0 0.00 0.00 0.00 66 1012.7
20260509181039 87 0 2.0 8.0 0.00 0.00 0.00 64 1012.8
20260509180540 86 224 1.0 9.0 0.00 0.00 0.00 65 1012.8
20260509180050 86 0 4.0 10.0 0.00 0.00 0.00 66 1012.8
20260509175539 86 0 0.0 10.0 0.00 0.00 0.00 67 1013.1
20260509175039 86 245 2.0 9.0 0.00 0.00 0.00 67 1013.2
20260509174549 85 287 3.0 8.0 0.00 0.00 0.00 65 1013.3
20260509174038 85 257 0.0 4.0 0.00 0.00 0.00 68 1013.2
20260509173540 85 273 0.0 2.0 0.00 0.00 0.00 69 1013.3
20260509173047 84 0 0.0 1.0 0.00 0.00 0.00 69 1013.3
20260509172540 84 0 0.0 3.0 0.00 0.00 0.00 69 1013.3
20260509172039 84 0 0.0 3.0 0.00 0.00 0.00 70 1013.5
20260509171543 83 221 0.0 1.0 0.00 0.00 0.00 73 1013.4
20260509171040 82 0 0.0 1.0 0.00 0.00 0.00 73 1013.4
20260509170540 81 0 0.0 1.0 0.00 0.00 0.00 74 1013.6
20260509170053 81 0 0.0 1.0 0.00 0.00 0.00 75 1013.6
20260509165541 81 0 0.0 1.0 0.00 0.00 0.00 77 1013.4
20260509165039 81 0 0.0 1.0 0.00 0.00 0.00 77 1013.5
20260509164549 82 0 0.0 2.0 0.00 0.00 0.00 77 1013.3
20260509164039 81 0 0.0 2.0 0.00 0.00 0.00 79 1013.4
20260509163539 81 262 0.0 2.0 0.00 0.00 0.00 79 1013.3
20260509163047 80 249 0.0 1.0 0.00 0.00 0.00 81 1013.2
20260509162540 80 0 0.0 2.0 0.00 0.00 0.00 82 1013.3
20260509162040 80 267 0.0 2.0 0.00 0.00 0.00 83 1013.4
20260509161546 79 0 0.0 2.0 0.00 0.00 0.00 85 1013.2
20260509161039 78 0 0.0 1.0 0.00 0.00 0.00 87 1013.3
20260509160538 78 0 0.0 1.0 0.00 0.00 0.00 89 1013.3
20260509160048 77 0 0.0 1.0 0.00 0.00 0.00 89 1013.6
20260509155539 77 0 0.0 1.0 0.00 0.00 0.00 91 1013.6
20260509155039 76 0 0.0 3.0 0.00 0.00 0.00 91 1013.7
20260509154547 77 0 0.0 3.0 0.00 0.00 0.00 90 1013.8
20260509154042 77 0 0.0 3.0 0.00 0.00 0.00 92 1013.8
20260509153539 76 0 0.0 1.0 0.00 0.00 0.00 93 1013.9
20260509153100 75 0 0.0 1.0 0.00 0.00 0.00 92 1013.9
20260509152539 74 0 0.0 1.0 0.00 0.00 0.00 94 1014.1
20260509152040 73 230 0.0 3.0 0.00 0.00 0.00 94 1014.2
20260509151552 73 0 0.0 5.0 0.00 0.00 0.00 94 1014.3
20260509151038 73 225 1.0 7.0 0.00 0.00 0.00 93 1014.2
20260509150539 74 37 3.0 7.0 0.00 0.00 0.00 93 1014.3
20260509150048 74 61 1.0 3.0 0.00 0.00 0.00 94 1014.1
20260509145540 74 41 1.0 4.0 0.00 0.00 0.00 94 1014.0
20260509145040 74 0 0.0 4.0 0.00 0.00 0.00 94 1014.0
20260509144543 74 0 1.0 4.0 0.00 0.00 0.00 94 1014.1
20260509144040 74 170 1.0 5.0 0.00 0.00 0.00 94 1014.1
20260509143545 74 33 2.0 5.0 0.00 0.00 0.00 94 1014.1
20260509143043 74 0 1.0 4.0 0.00 0.00 0.00 95 1014.1
20260509142539 74 172 1.0 3.0 0.00 0.00 0.00 95 1014.1
20260509142039 73 0 1.0 3.0 0.00 0.00 0.00 95 1014.2
20260509141549 73 164 1.0 3.0 0.00 0.00 0.00 95 1014.1
20260509141040 73 49 0.0 3.0 0.00 0.00 0.00 95 1013.9
20260509140539 73 68 0.0 3.0 0.00 0.00 0.00 95 1013.9
20260509140056 74 0 0.0 1.0 0.00 0.00 0.00 95 1013.8
20260509135539 74 0 0.0 0.0 0.00 0.00 0.00 95 1013.7
20260509135039 73 0 0.0 0.0 0.00 0.00 0.00 95 1013.5
20260509134549 73 0 0.0 0.0 0.00 0.00 0.00 95 1013.4
20260509134039 73 0 0.0 0.0 0.00 0.00 0.00 96 1013.1
20260509133539 73 0 0.0 2.0 0.00 0.00 0.00 96 1012.7
20260509133047 73 0 0.0 6.0 0.00 0.00 0.00 96 1012.7
20260509132539 73 33 1.0 6.0 0.00 0.00 0.00 96 1012.8
20260509132039 73 47 1.0 6.0 0.00 0.00 0.00 97 1012.7
20260509131548 73 39 2.0 6.0 0.00 0.00 0.00 97 1012.8
20260509131038 73 206 1.0 3.0 0.00 0.00 0.00 97 1013.1
20260509130539 73 30 0.0 2.0 0.00 0.00 0.00 97 1013.4
20260509130048 73 0 0.0 1.0 0.00 0.00 0.00 97 1013.4
20260509125542 72 0 0.0 2.0 0.00 0.00 0.00 97 1013.5
20260509125039 72 0 0.0 2.0 0.00 0.00 0.00 97 1013.4
20260509124546 72 31 0.0 2.0 0.00 0.00 0.00 97 1013.4
20260509124040 0 0.0 0.0 0.00 0.00 0.00 1013.5
20260509123541 0 0.0 0.0 0.00 0.00 0.00 1013.6
20260509123050 0 0.0 0.0 0.00 0.00 0.00 1013.6
20260509122538 0 0.0 0.0 0.00 0.00 0.00 1013.6
20260509122039 0 0.0 0.0 0.00 0.00 0.00 1013.7
20260509121545 0 0.0 0.0 0.00 0.00 0.00 1013.6
20260509121040 0 0.0 0.0 0.00 0.00 0.00 1013.7
20260509120539 0 0.0 0.0 0.00 0.00 0.00 1013.6
20260509120057 0 0.0 0.0 0.00 0.00 0.00 1013.4
20260509115539 0 0.0 0.0 0.00 0.00 0.00 1013.4
20260509115038 0 0.0 0.0 0.00 0.00 0.00 1013.2
20260509114547 0 0.0 0.0 0.00 0.00 0.00 1013.1
20260509114040 0 0.0 0.0 0.00 0.00 0.00 1013.0
20260509113539 0 0.0 0.0 0.00 0.00 0.00 1012.7
20260509113054 0 0.0 0.0 0.00 0.00 0.00 1012.7
20260509112539 0 0.0 0.0 0.00 0.00 0.00 1012.5
20260509112039 0 0.0 0.0 0.00 0.00 0.00 1012.5
20260509111551 0 0.0 0.0 0.00 0.00 0.00 1012.6
20260509111039 0 0.0 0.0 0.00 0.00 0.00 1012.6
20260509110540 0 0.0 0.0 0.00 0.00 0.00 1012.6
20260509110047 0 0.0 0.0 0.00 0.00 0.00 1012.4
20260509105539 0 0.0 0.0 0.00 0.00 0.00 1012.4
20260509105039 0 0.0 0.0 0.00 0.00 0.00 1012.5
20260509104548 0 0.0 0.0 0.00 0.00 0.00 1012.5
20260509104039 0 0.0 0.0 0.00 0.00 0.00 1012.5
20260509103539 0 0.0 0.0 0.00 0.00 0.00 1012.7
20260509103053 0 0.0 0.0 0.00 0.00 0.00 1012.7
20260509102539 0 0.0 0.0 0.00 0.00 0.00 1012.8
20260509102040 0 0.0 0.0 0.00 0.00 0.00 1012.8
20260509101554 0 0.0 0.0 0.00 0.00 0.00 1012.7
20260509101039 0 0.0 0.0 0.00 0.00 0.00 1012.5
20260509100540 0 0.0 0.0 0.00 0.00 0.00 1012.4
20260509100052 0 0.0 0.0 0.00 0.00 0.00 1012.3
20260509095540 0 0.0 0.0 0.00 0.00 0.00 1012.2
20260509095039 0 0.0 0.0 0.00 0.00 0.00 1012.0
20260509094550 0 0.0 0.0 0.00 0.00 0.00 1011.9
20260509094040 0 0.0 0.0 0.00 0.00 0.00 1011.8
20260509093538 0 0.0 0.0 0.00 0.00 0.00 1011.8
20260509093054 0 0.0 0.0 0.00 0.00 0.00 1011.7
20260509092542 0 0.0 0.0 0.00 0.00 0.00 96 1011.6
20260509092043 0 0 0.0 0.0 0.00 0.00 0.00 96 1011.6
20260509091622 72 0 0.0 0.0 0.00 0.00 0.00 96 1011.4
20260509091039 72 0 0.0 0.0 0.00 0.00 0.00 96 1011.5
20260509090540 72 0 0.0 0.0 0.00 0.00 0.00 96 1011.5
20260509090057 72 0 0.0 0.0 0.00 0.00 0.00 96 1011.6
20260509085539 72 0 0.0 0.0 0.00 0.00 0.00 96 1011.8
20260509085042 72 0 0.0 0.0 0.00 0.00 0.00 96 1011.7
20260509084550 72 0 0.0 0.0 0.00 0.00 0.00 96 1011.5
20260509084039 72 0 0.0 0.0 0.00 0.00 0.00 96 1011.5
20260509083538 72 0 0.0 0.0 0.00 0.00 0.00 96 1011.5
20260509083055 72 0 0.0 0.0 0.00 0.00 0.00 96 1011.7
20260509082539 72 0 0.0 0.0 0.00 0.00 0.00 96 1011.8
20260509082040 72 0 0.0 1.0 0.00 0.00 0.00 96 1011.7
20260509081557 72 0 0.0 5.0 0.00 0.00 0.00 96 1011.8
20260509081039 72 0 0.0 5.0 0.00 0.00 0.00 96 1011.8
20260509080538 72 71 0.0 7.0 0.00 0.00 0.00 96 1011.7
20260509080105 72 203 0.0 7.0 0.00 0.00 0.00 95 1011.8
20260509075542 72 205 2.0 7.0 0.00 0.00 0.00 95 1011.9
20260509075042 72 49 2.0 6.0 0.00 0.00 0.00 95 1011.9
20260509074600 72 217 1.0 5.0 0.00 0.00 0.00 95 1011.9
20260509074040 72 134 1.0 5.0 0.00 0.00 0.00 95 1012.0
20260509073539 72 202 0.0 4.0 0.00 0.00 0.00 95 1012.1
20260509073116 72 0 0.0 4.0 0.00 0.00 0.00 95 1011.9
20260509072542 72 0 0.0 6.0 0.00 0.00 0.00 95 1011.9
20260509072040 72 328 0.0 8.0 0.00 0.00 0.00 95 1012.0
20260509071548 73 172 2.0 8.0 0.00 0.00 0.00 94 1011.8
20260509071039 73 79 1.0 7.0 0.00 0.00 0.00 94 1011.8
20260509070544 73 0 1.0 4.0 0.00 0.00 0.00 94 1012.0
20260509070054 73 0 0.0 5.0 0.00 0.00 0.00 94 1012.4
20260509065539 73 188 1.0 5.0 0.00 0.00 0.00 94 1012.4
20260509065040 73 99 0.0 3.0 0.00 0.00 0.00 94 1012.3
20260509064548 73 131 0.0 3.0 0.00 0.00 0.00 94 1012.2
20260509064044 73 28 0.0 4.0 0.00 0.00 0.00 94 1012.1
20260509063540 73 51 1.0 4.0 0.00 0.00 0.00 94 1012.3
20260509063047 73 49 0.0 4.0 0.00 0.00 0.00 94 1012.5
20260509062540 73 0 0.0 4.0 0.00 0.00 0.00 94 1012.6
20260509062040 73 0 1.0 4.0 0.00 0.00 0.00 94 1012.5
20260509061557 73 188 0.0 4.0 0.00 0.00 0.00 94 1012.4
20260509061040 73 0 2.0 4.0 0.00 0.00 0.00 94 1012.5
20260509060540 73 0 0.0 3.0 0.00 0.00 0.00 93 1012.6
20260509060052 73 0 0.0 4.0 0.00 0.00 0.00 93 1012.7
20260509055538 73 0 0.0 5.0 0.00 0.00 0.00 93 1012.5
20260509055043 73 0 1.0 5.0 0.00 0.00 0.00 93 1012.5
20260509054602 73 41 1.0 5.0 0.00 0.00 0.00 93 1012.4
20260509054039 73 49 0.0 3.0 0.00 0.00 0.00 93 1012.5
20260509053540 73 0 0.0 3.0 0.00 0.00 0.00 93 1012.7
20260509053051 73 61 1.0 4.0 0.00 0.00 0.00 93 1013.1
20260509052541 73 186 0.0 4.0 0.00 0.00 0.00 93 1013.1
20260509052039 73 39 1.0 4.0 0.00 0.00 0.00 93 1013.0
20260509051549 73 184 1.0 6.0 0.00 0.00 0.00 93 1013.0
20260509051043 73 0 0.0 6.0 0.00 0.00 0.00 93 1013.1
20260509050539 73 82 2.0 6.0 0.00 0.00 0.00 93 1013.0
20260509050058 73 189 0.0 6.0 0.00 0.00 0.00 93 1013.2
20260509045539 73 209 2.0 8.0 0.00 0.00 0.00 93 1013.1
20260509045039 73 24 2.0 8.0 0.00 0.00 0.00 92 1012.9
20260509044547 73 103 2.0 7.0 0.00 0.00 0.00 92 1012.9
20260509044038 73 44 2.0 5.0 0.00 0.00 0.00 92 1012.8
20260509043539 73 165 0.0 4.0 0.00 0.00 0.00 92 1013.0
20260509043043 73 0 0.0 4.0 0.00 0.00 0.00 92 1013.1
20260509042538 73 27 0.0 2.0 0.00 0.00 0.00 92 1013.0
20260509042040 72 207 0.0 2.0 0.00 0.00 0.00 92 1012.9
20260509041548 72 0 0.0 2.0 0.00 0.00 0.00 92 1012.7
20260509041041 72 0 0.0 2.0 0.00 0.00 0.00 92 1012.7
20260509040539 72 0 0.0 2.0 0.00 0.00 0.00 92 1012.5
20260509040119 72 0 0.0 2.0 0.00 0.00 0.00 92 1012.4
20260509035539 72 0 0.0 5.0 0.00 0.00 0.00 91 1012.4
20260509035040 72 174 0.0 5.0 0.00 0.00 0.00 91 1012.0
20260509034550 72 42 1.0 2.0 0.00 0.00 0.00 91 1011.9
20260509034039 73 0 0.0 3.0 0.00 0.00 0.00 91 1011.9
20260509033539 73 34 0.0 3.0 0.00 0.00 0.00 91 1011.8
20260509033043 73 0 0.0 2.0 0.00 0.00 0.00 91 1011.7
20260509032540 73 0 0.0 2.0 0.00 0.00 0.00 90 1011.7
20260509032045 73 0 0.0 3.0 0.00 0.00 0.00 90 1011.8
20260509031550 73 0 1.0 4.0 0.00 0.00 0.00 90 1011.8
20260509031038 73 0 0.0 4.0 0.00 0.00 0.00 90 1011.7
20260509030540 73 0 0.0 4.0 0.00 0.00 0.00 89 1011.8
20260509030050 73 0 0.0 4.0 0.00 0.00 0.00 89 1011.9
20260509025544 73 0 0.0 5.0 0.00 0.00 0.00 89 1011.8
20260509025044 74 44 1.0 5.0 0.00 0.00 0.00 89 1011.8
20260509024548 74 101 0.0 4.0 0.00 0.00 0.00 89 1011.8
20260509024039 74 0 0.0 4.0 0.00 0.00 0.00 89 1011.7
20260509023540 74 44 0.0 3.0 0.00 0.00 0.00 88 1011.6
20260509023048 74 0 0.0 3.0 0.00 0.00 0.00 88 1011.7
20260509022539 74 37 0.0 2.0 0.00 0.00 0.00 89 1011.8
20260509022039 74 0 0.0 2.0 0.00 0.00 0.00 88 1011.7
20260509021548 74 0 0.0 3.0 0.00 0.00 0.00 88 1011.6
20260509021040 74 0 0.0 3.0 0.00 0.00 0.00 89 1011.4
20260509020538 74 0 0.0 3.0 0.00 0.00 0.00 88 1011.4
20260509020042 74 0 0.0 4.0 0.00 0.00 0.00 88 1011.2
20260509015543 74 0 0.0 4.0 0.00 0.00 0.00 88 1011.1
20260509015040 74 48 0.0 4.0 0.00 0.00 0.00 87 1010.9
20260509014547 74 41 0.0 4.0 0.00 0.00 0.00 87 1010.8
20260509014041 74 0 0.0 3.0 0.00 0.00 0.00 87 1010.7
20260509013629 75 0 0.0 3.0 0.00 0.00 0.00 86 1010.8
20260509013051 75 0 0.0 2.0 0.00 0.00 0.00 86 1010.9
20260509012539 75 0 0.0 3.0 0.00 0.00 0.00 86 1010.8
20260509012039 75 34 0.0 6.0 0.00 0.00 0.00 85 1010.8
20260509011555 75 25 0.0 6.0 0.00 0.00 0.00 85 1010.9
20260509011039 76 0 0.0 3.0 0.00 0.00 0.00 84 1010.8